YZ-1 R/B, 44795

Orbit data source: Space-Track

YZ-1 R/B, 44795 is space debris originally from a launch on Sat, 23 Nov 2019 UTC launched from the Xichang Space Center, China (XSC). Debris objects in space refer to the collection of defunct objects orbiting the Earth. Examples of debris include non-operational satellites, rocket bodies, and fragments generated from explosions, collisions, or faulty payload assembly.

Loading next visibility...
Identifier
44795, 2019-078C
Orbit
Active
Country
Flag of CNCN / PRC
Related business
Manufacturer
CALT
Mission
Spacecraft
Bus & Motor
YZ-1, Unknown motor
Mass
~2,075 kg wet, ~2,075 kg dry
Launch date (UTC)
2019-11-23 (7 years ago)
Launch vehicle
Unknown
Launch site
Xichang Space Center, China (XSC)
Object type
Payload
Rocket body
Debris
Shape & HBR
Double Cone, 2.1 m
Radar Cross Section
5.890 m², Large (>1 m²)

Expand to show TLE details & history
Last TLE update: 4 days ago

TLE from 4 days ago
0 YZ-1 R/B
1 44795U 19078C   26262.68856053 -.00000037  00000-0  00000+0 0  9993
2 44795  54.1246 304.9500 0071187  51.3195 309.3806  1.78050349 44398
Epoch: 2026-09-19T16:31Z
TLE epoch observation values (Epoch: 2026-09-19T16:31:31.629Z)
Latitude
0.00006°
Longitude
58.49385°
Altitude
22,247.472 km
Speed
3.74 km/s
True Right ascension
20h 19m 52s
True Declination
0° 00' 00"
Sunlit
Object was in daylight at epoch
Visualization orbit readout
Latitude
Unknown
Longitude
Unknown
Altitude
Unknown
Speed
Unknown
Apparent Right ascension
Unknown
Apparent Declination
Unknown
Sunlit
N/A
Visualization observer readout
Local Sidereal Time
01:44:11
Azimuth
Unknown
Elevation
Unknown
Doppler factor
Unknown
Orbital elements
Apogee altitude
22,581.152 km
Perigee altitude
22,171.762 km
Semi-major axis
28,754.594 km
Eccentricity
0.00712
Inclination
54.1246°
RAAN
304.95°
Arg. of periapsis
51.3195°
True anomaly
308.74651°
Mean anomaly
309.3806°
Eccentric anomaly
309.06391°
Mean motion
0.44513 °/min
Orbital period
808.76 mins
BSTAR
0
Loading maneuver chart data...
Computing Atmospheric mass density...
Loading historical data...
Loading historical data...
Loading historical data...
Loading historical data...
Loading historical data...
Loading historical data...
Loading historical data...
Other satellites on launch #78 in the year 2019 (2019-11-23 UTC)

Documentation

Showing up to 5 results
|